"read_dt","SO2 (ppb)","flags","PMT voltage (V)","lamp voltage (V)","lamp intensity (Hz)","internal temp (C)","react chamber temp (C)","sample flow (l/min)","pres (mmHg)","SO2 bkg (ppb)","SO2 coefficient"
2014-03-12 00:00:00,5058E-2,5C000490,-0724,1291,7530,025.7,045.2,0.132,756.0,01.16,0.508
2014-03-12 00:01:00,5109E-2,5C000490,-0724,1292,7676,025.7,045.3,0.132,756.1,01.16,0.508
2014-03-12 00:02:00,5130E-2,5C000490,-0724,1292,7711,025.7,045.2,0.132,756.0,01.16,0.508
2014-03-12 00:03:00,5136E-2,5C000490,-0724,1291,7609,025.7,045.2,0.132,756.0,01.16,0.508
2014-03-12 00:04:00,5179E-2,5C000490,-0724,1289,7711,025.7,045.2,0.132,756.0,01.16,0.508
2014-03-12 00:05:00,5101E-2,5C000490,-0724,1290,7751,025.7,045.2,0.132,756.1,01.16,0.508
2014-03-12 00:06:00,5107E-2,5C000490,-0724,1290,7726,025.7,045.3,0.132,756.0,01.16,0.508
2014-03-12 00:07:00,5151E-2,5C000490,-0724,1292,7609,025.7,045.2,0.132,756.0,01.16,0.508
2014-03-12 00:08:00,5091E-2,5C000490,-0724,1292,7595,025.7,045.2,0.131,756.0,01.16,0.508
2014-03-12 00:09:00,5183E-2,5C000490,-0724,1293,7716,025.7,045.2,0.131,756.0,01.16,0.508
2014-03-12 00:10:00,5109E-2,5C000490,-0724,1294,7656,025.8,045.2,0.132,756.0,01.16,0.508
2014-03-12 00:11:00,5088E-2,5C000490,-0724,1295,7560,025.7,045.2,0.131,756.0,01.16,0.508
2014-03-12 00:12:00,5146E-2,5C000490,-0724,1298,7628,025.7,045.2,0.131,756.0,01.16,0.508
2014-03-12 00:13:00,5136E-2,5C000490,-0724,1299,7509,025.8,045.3,0.131,755.9,01.16,0.508
2014-03-12 00:14:00,5137E-2,5C000490,-0724,1301,7533,025.8,045.3,0.131,756.0,01.16,0.508
2014-03-12 00:15:00,5158E-2,5C000490,-0724,1302,7623,025.8,045.2,0.131,756.0,01.16,0.508
2014-03-12 00:16:00,5129E-2,5C000490,-0724,1303,7419,025.8,045.2,0.131,755.9,01.16,0.508
2014-03-12 00:17:00,5134E-2,5C000490,-0724,1304,7447,025.8,045.3,0.131,755.9,01.16,0.508
2014-03-12 00:18:00,5103E-2,5C000490,-0724,1305,7521,025.8,045.2,0.131,756.0,01.16,0.508
2014-03-12 00:19:00,5150E-2,5C000490,-0724,1307,7474,025.8,045.2,0.131,755.9,01.16,0.508
2014-03-12 00:20:00,5105E-2,5C000490,-0724,1309,7455,025.8,045.2,0.131,755.9,01.16,0.508
2014-03-12 00:21:00,5089E-2,5C000490,-0724,1311,7520,025.8,045.2,0.131,755.9,01.16,0.508
2014-03-12 00:22:00,5150E-2,5C000490,-0724,1310,7471,025.8,045.3,0.131,755.9,01.16,0.508
2014-03-12 00:23:00,5125E-2,5C000490,-0724,1311,7510,025.9,045.3,0.131,755.9,01.16,0.508
2014-03-12 00:24:00,5182E-2,5C000490,-0724,1313,7379,025.9,045.3,0.131,755.9,01.16,0.508
2014-03-12 00:25:00,5133E-2,5C000490,-0724,1314,7473,025.9,045.3,0.131,755.9,01.16,0.508
2014-03-12 00:26:00,5181E-2,5C000490,-0724,1314,7413,025.9,045.2,0.131,755.9,01.16,0.508
2014-03-12 00:27:00,5148E-2,5C000490,-0724,1314,7469,025.9,045.2,0.131,755.9,01.16,0.508
2014-03-12 00:28:00,5173E-2,5C000490,-0724,1314,7425,025.9,045.2,0.131,755.9,01.16,0.508
2014-03-12 00:29:00,5134E-2,5C000490,-0724,1317,7325,025.9,045.3,0.131,755.9,01.16,0.508
2014-03-12 00:30:00,5195E-2,5C000490,-0724,1317,7490,025.9,045.2,0.131,755.8,01.16,0.508
2014-03-12 00:31:00,5187E-2,5C000490,-0724,1318,7419,025.9,045.2,0.131,755.8,01.16,0.508
2014-03-12 00:32:00,5119E-2,5C000490,-0724,1319,7372,025.9,045.2,0.131,755.8,01.16,0.508
2014-03-12 00:33:00,5217E-2,5C000490,-0724,1319,7361,025.9,045.3,0.131,755.8,01.16,0.508
2014-03-12 00:34:00,5145E-2,5C000490,-0724,1319,7309,025.9,045.2,0.131,755.9,01.16,0.508
2014-03-12 00:35:00,5136E-2,5C000490,-0724,1319,7370,025.9,045.3,0.131,755.8,01.16,0.508
2014-03-12 00:36:00,5129E-2,5C000490,-0724,1321,7308,025.9,045.2,0.131,755.7,01.16,0.508
2014-03-12 00:37:00,5174E-2,5C000490,-0724,1322,7405,025.9,045.2,0.131,755.8,01.16,0.508
2014-03-12 00:38:00,5186E-2,5C000490,-0724,1322,7393,025.9,045.3,0.131,755.9,01.16,0.508
2014-03-12 00:39:00,5155E-2,5C000490,-0724,1321,7391,025.9,045.3,0.131,755.7,01.16,0.508
2014-03-12 00:40:00,5207E-2,5C000490,-0724,1322,7322,026.0,045.3,0.131,755.7,01.16,0.508
2014-03-12 00:41:00,5167E-2,5C000490,-0724,1322,7317,026.0,045.2,0.131,755.8,01.16,0.508
2014-03-12 00:42:00,5168E-2,5C000490,-0724,1324,7280,025.9,045.3,0.131,755.8,01.16,0.508
2014-03-12 00:43:00,5143E-2,5C000490,-0724,1325,7301,026.0,045.3,0.131,755.8,01.16,0.508
2014-03-12 00:44:00,5158E-2,5C000490,-0724,1327,7283,026.0,045.2,0.131,755.7,01.16,0.508
2014-03-12 00:45:00,5145E-2,5C000490,-0724,1329,7159,026.0,045.2,0.131,755.7,01.16,0.508
2014-03-12 00:46:00,5162E-2,5C000490,-0724,1330,7234,026.0,045.3,0.131,755.7,01.16,0.508
2014-03-12 00:47:00,5142E-2,5C000490,-0724,1331,7314,026.0,045.2,0.131,755.6,01.16,0.508
2014-03-12 00:48:00,5213E-2,5C000490,-0724,1332,7197,026.0,045.2,0.131,755.6,01.16,0.508
2014-03-12 00:49:00,5220E-2,5C000490,-0724,1330,7333,026.0,045.3,0.130,755.6,01.16,0.508
2014-03-12 00:50:00,5121E-2,5C000490,-0724,1329,7348,026.0,045.3,0.130,755.5,01.16,0.508
2014-03-12 00:51:00,5144E-2,5C000490,-0724,1325,7380,026.0,045.2,0.131,755.6,01.16,0.508
2014-03-12 00:52:00,5085E-2,5C000490,-0724,1326,7331,026.0,045.3,0.130,755.5,01.16,0.508
2014-03-12 00:53:00,5164E-2,5C000490,-0724,1324,7273,026.0,045.3,0.130,755.4,01.16,0.508
2014-03-12 00:54:00,5167E-2,5C000490,-0724,1326,7307,026.0,045.2,0.130,755.5,01.16,0.508
2014-03-12 00:55:00,5162E-2,5C000490,-0724,1328,7245,026.0,045.3,0.130,755.5,01.16,0.508
2014-03-12 00:56:00,5111E-2,5C000490,-0724,1329,7334,026.1,045.3,0.130,755.4,01.16,0.508
2014-03-12 00:57:00,5189E-2,5C000490,-0724,1331,7252,026.1,045.2,0.130,755.4,01.16,0.508
2014-03-12 00:58:00,5138E-2,5C000490,-0724,1331,7268,026.1,045.3,0.130,755.4,01.16,0.508
2014-03-12 00:59:00,5115E-2,5C000490,-0724,1332,7323,026.1,045.3,0.130,755.3,01.16,0.508
2014-03-12 01:00:00,5151E-2,5C000490,-0724,1333,7143,026.1,045.3,0.130,755.4,01.16,0.508
2014-03-12 01:01:00,5121E-2,5C000490,-0724,1335,7158,026.1,045.2,0.130,755.4,01.16,0.508
2014-03-12 01:02:00,5119E-2,5C000490,-0724,1337,7080,026.1,045.2,0.130,755.4,01.16,0.508
2014-03-12 01:03:00,5121E-2,5C000490,-0724,1339,7191,026.1,045.3,0.130,755.3,01.16,0.508
2014-03-12 01:04:00,5157E-2,5C000490,-0724,1340,7218,026.1,045.2,0.130,755.3,01.16,0.508
2014-03-12 01:05:00,5162E-2,5C000490,-0724,1340,7128,026.2,045.2,0.130,755.4,01.16,0.508
2014-03-12 01:06:00,5106E-2,5C000490,-0724,1342,7131,026.1,045.3,0.130,755.3,01.16,0.508
2014-03-12 01:07:00,5177E-2,5C000490,-0724,1342,7106,026.2,045.2,0.130,755.3,01.16,0.508
2014-03-12 01:08:00,5130E-2,5C000490,-0724,1341,7200,026.2,045.3,0.130,755.4,01.16,0.508
2014-03-12 01:09:00,5151E-2,5C000490,-0724,1341,7209,026.2,045.3,0.130,755.3,01.16,0.508
2014-03-12 01:10:00,5167E-2,5C000490,-0724,1342,7222,026.2,045.2,0.130,755.3,01.16,0.508
2014-03-12 01:11:00,5154E-2,5C000490,-0724,1342,7108,026.2,045.2,0.130,755.3,01.16,0.508
2014-03-12 01:12:00,5177E-2,5C000490,-0724,1344,7129,026.2,045.3,0.130,755.4,01.16,0.508
2014-03-12 01:13:00,5093E-2,5C000490,-0724,1345,7078,026.2,045.3,0.130,755.3,01.16,0.508
2014-03-12 01:14:00,5194E-2,5C000490,-0724,1346,7204,026.2,045.3,0.130,755.2,01.16,0.508
2014-03-12 01:15:00,5133E-2,5C000490,-0724,1347,7080,026.2,045.3,0.130,755.3,01.16,0.508
2014-03-12 01:16:00,5105E-2,5C000490,-0724,1345,7074,026.2,045.3,0.130,755.2,01.16,0.508
2014-03-12 01:17:00,5154E-2,5C000490,-0724,1346,7108,026.2,045.2,0.130,755.2,01.16,0.508
2014-03-12 01:18:00,5184E-2,5C000490,-0724,1347,7104,026.2,045.3,0.130,755.2,01.16,0.508
2014-03-12 01:19:00,5153E-2,5C000490,-0724,1350,7024,026.2,045.3,0.130,755.2,01.16,0.508
2014-03-12 01:20:00,5200E-2,5C000490,-0724,1352,7048,026.2,045.2,0.130,755.2,01.16,0.508
2014-03-12 01:21:00,5208E-2,5C000490,-0724,1350,7155,026.2,045.2,0.130,755.2,01.16,0.508
2014-03-12 01:22:00,5212E-2,5C000490,-0724,1348,7102,026.2,045.2,0.130,755.2,01.16,0.508
2014-03-12 01:23:00,5230E-2,5C000490,-0724,1347,7069,026.2,045.2,0.130,755.1,01.16,0.508
2014-03-12 01:24:00,5252E-2,5C000490,-0724,1347,7088,026.2,045.3,0.130,755.1,01.16,0.508
2014-03-12 01:25:00,5268E-2,5C000490,-0724,1349,7058,026.2,045.3,0.130,755.2,01.16,0.508
2014-03-12 01:26:00,5223E-2,5C000490,-0724,1349,7045,026.2,045.3,0.130,755.2,01.16,0.508
2014-03-12 01:27:00,5287E-2,5C000490,-0724,1350,7164,026.2,045.3,0.130,755.1,01.16,0.508
2014-03-12 01:28:00,5308E-2,5C000490,-0724,1349,7086,026.2,045.3,0.130,755.1,01.16,0.508
2014-03-12 01:29:00,5251E-2,5C000490,-0724,1350,7054,026.2,045.3,0.130,755.2,01.16,0.508
2014-03-12 01:30:00,5254E-2,5C000490,-0724,1351,7019,026.2,045.2,0.130,755.2,01.16,0.508
2014-03-12 01:31:00,5201E-2,5C000490,-0724,1353,6989,026.3,045.3,0.130,755.2,01.16,0.508
2014-03-12 01:32:00,5244E-2,5C000490,-0724,1353,7043,026.3,045.3,0.130,755.1,01.16,0.508
2014-03-12 01:33:00,5213E-2,5C000490,-0724,1353,7089,026.3,045.3,0.130,755.1,01.16,0.508
2014-03-12 01:34:00,5291E-2,5C000490,-0724,1353,6986,026.3,045.3,0.130,755.1,01.16,0.508
2014-03-12 01:35:00,5238E-2,5C000490,-0724,1352,7098,026.2,045.2,0.129,755.1,01.16,0.508
2014-03-12 01:36:00,5182E-2,5C000490,-0724,1349,7037,026.3,045.3,0.130,755.2,01.16,0.508
2014-03-12 01:37:00,5164E-2,5C000490,-0724,1350,7022,026.3,045.2,0.130,755.2,01.16,0.508
2014-03-12 01:38:00,5146E-2,5C000490,-0724,1352,7036,026.3,045.3,0.130,755.1,01.16,0.508
2014-03-12 01:39:00,5167E-2,5C000490,-0724,1353,7078,026.3,045.3,0.129,755.1,01.16,0.508
2014-03-12 01:40:00,5153E-2,5C000490,-0724,1353,7084,026.3,045.3,0.129,755.2,01.16,0.508
2014-03-12 01:41:00,5184E-2,5C000490,-0724,1355,6903,026.3,045.3,0.129,755.2,01.16,0.508
2014-03-12 01:42:00,5121E-2,5C000490,-0724,1356,6934,026.3,045.2,0.130,755.1,01.16,0.508
2014-03-12 01:43:00,5176E-2,5C000490,-0724,1357,6932,026.3,045.2,0.130,755.2,01.16,0.508
2014-03-12 01:44:00,5155E-2,5C000490,-0724,1357,6978,026.3,045.3,0.129,755.2,01.16,0.508
2014-03-12 01:45:00,5535E-2,5C000490,-0724,1358,7002,026.3,045.3,0.130,755.2,01.16,0.508
2014-03-12 01:46:00,5615E-2,5C000490,-0724,1358,6896,026.3,045.2,0.129,755.1,01.16,0.508
2014-03-12 01:47:00,5457E-2,5C000490,-0724,1359,6955,026.3,045.3,0.129,755.1,01.16,0.508
2014-03-12 01:48:00,5531E-2,5C000490,-0724,1358,6954,026.3,045.3,0.130,755.1,01.16,0.508
2014-03-12 01:49:00,5529E-2,5C000490,-0724,1359,7042,026.3,045.3,0.130,755.1,01.16,0.508
2014-03-12 01:50:00,5546E-2,5C000490,-0724,1360,6838,026.3,045.3,0.129,755.1,01.16,0.508
2014-03-12 01:51:00,5576E-2,5C000490,-0724,1361,6923,026.3,045.3,0.130,755.1,01.16,0.508
2014-03-12 01:52:00,5559E-2,5C000490,-0724,1362,6957,026.3,045.3,0.129,755.0,01.17,0.508
2014-03-12 01:53:00,5547E-2,5C000490,-0724,1362,6839,026.3,045.3,0.129,755.1,01.16,0.508
2014-03-12 01:54:00,5580E-2,5C000490,-0724,1362,6873,026.3,045.3,0.129,755.0,01.17,0.508
2014-03-12 01:55:00,5492E-2,5C000490,-0724,1363,6856,026.4,045.2,0.129,755.1,01.16,0.508
2014-03-12 01:56:00,5536E-2,5C000490,-0724,1363,6943,026.3,045.3,0.129,755.1,01.16,0.508
2014-03-12 01:57:00,5597E-2,5C000490,-0724,1364,6918,026.4,045.3,0.129,755.0,01.17,0.508
2014-03-12 01:58:00,5587E-2,5C000490,-0724,1365,6806,026.3,045.3,0.129,755.0,01.17,0.508
2014-03-12 01:59:00,5519E-2,5C000490,-0724,1365,6816,026.3,045.3,0.129,755.0,01.17,0.508
2014-03-12 02:00:00,5562E-2,5C000490,-0724,1365,6921,026.3,045.3,0.129,755.0,01.17,0.508
2014-03-12 02:01:00,5569E-2,5C000490,-0724,1365,6897,026.4,045.3,0.129,755.0,01.17,0.508
2014-03-12 02:02:00,5558E-2,5C000490,-0724,1366,6869,026.4,045.3,0.129,755.0,01.17,0.508
2014-03-12 02:03:00,5596E-2,5C000490,-0724,1367,6843,026.4,045.3,0.129,755.0,01.17,0.508
2014-03-12 02:04:00,5583E-2,5C000490,-0724,1367,6845,026.4,045.3,0.129,755.1,01.16,0.508
2014-03-12 02:05:00,5500E-2,5C000490,-0724,1368,6849,026.4,045.3,0.129,755.0,01.17,0.508
2014-03-12 02:06:00,5622E-2,5C000490,-0724,1368,6835,026.4,045.3,0.129,755.0,01.17,0.508
2014-03-12 02:07:00,5543E-2,5C000490,-0724,1369,6891,026.4,045.3,0.129,755.0,01.17,0.508
2014-03-12 02:08:00,5560E-2,5C000490,-0724,1369,6861,026.4,045.3,0.129,755.1,01.16,0.508
2014-03-12 02:09:00,5623E-2,5C000490,-0724,1369,6823,026.4,045.3,0.129,755.1,01.16,0.508
2014-03-12 02:10:00,5543E-2,5C000490,-0724,1369,6834,026.4,045.3,0.129,755.0,01.17,0.508
2014-03-12 02:11:00,5574E-2,5C000490,-0724,1369,6831,026.4,045.3,0.129,755.0,01.17,0.508
2014-03-12 02:12:00,5590E-2,5C000490,-0724,1369,6849,026.4,045.3,0.129,754.9,01.17,0.508
2014-03-12 02:13:00,5619E-2,5C000490,-0724,1370,6736,026.4,045.3,0.129,755.1,01.16,0.508
2014-03-12 02:14:00,5661E-2,5C000490,-0724,1370,6801,026.4,045.3,0.129,755.0,01.17,0.508
2014-03-12 02:15:00,5556E-2,5C000490,-0724,1370,6749,026.4,045.3,0.129,755.0,01.17,0.508
2014-03-12 02:16:00,5578E-2,5C000490,-0724,1370,6798,026.4,045.2,0.129,755.0,01.17,0.508
2014-03-12 02:17:00,5573E-2,5C000490,-0724,1370,6819,026.4,045.3,0.129,755.0,01.17,0.508
2014-03-12 02:18:00,5565E-2,5C000490,-0724,1370,6819,026.4,045.3,0.129,754.9,01.17,0.508
2014-03-12 02:19:00,5642E-2,5C000490,-0724,1370,6784,026.4,045.3,0.129,755.0,01.17,0.508
2014-03-12 02:20:00,5646E-2,5C000490,-0724,1369,6881,026.4,045.2,0.129,754.9,01.17,0.508
2014-03-12 02:21:00,5534E-2,5C000490,-0724,1368,6808,026.4,045.3,0.129,754.8,01.17,0.508
2014-03-12 02:22:00,5586E-2,5C000490,-0724,1368,6827,026.3,045.3,0.129,754.8,01.17,0.508
2014-03-12 02:23:00,5577E-2,5C000490,-0724,1369,6917,026.3,045.3,0.129,754.9,01.17,0.508
2014-03-12 02:24:00,5609E-2,5C000490,-0724,1369,6838,026.3,045.3,0.129,754.8,01.17,0.508
2014-03-12 02:25:00,5533E-2,5C000490,-0724,1370,6740,026.2,045.2,0.129,754.8,01.17,0.508
2014-03-12 02:26:00,5539E-2,5C000490,-0724,1370,6696,026.2,045.3,0.129,754.8,01.17,0.508
2014-03-12 02:27:00,5589E-2,5C000490,-0724,1370,6787,026.2,045.3,0.129,754.8,01.17,0.508
2014-03-12 02:28:00,5622E-2,5C000490,-0724,1371,6819,026.2,045.3,0.129,754.8,01.17,0.508
2014-03-12 02:29:00,5601E-2,5C000490,-0724,1371,6746,026.2,045.3,0.129,754.8,01.17,0.508
2014-03-12 02:30:00,5580E-2,5C000490,-0724,1371,6715,026.2,045.3,0.129,754.8,01.17,0.508
2014-03-12 02:31:00,5575E-2,5C000490,-0724,1372,6769,026.1,045.3,0.130,754.8,01.17,0.508
2014-03-12 02:32:00,5660E-2,5C000490,-0724,1372,6732,026.1,045.2,0.130,754.7,01.17,0.508
2014-03-12 02:33:00,5599E-2,5C000490,-0724,1372,6763,026.1,045.3,0.130,754.7,01.17,0.508
2014-03-12 02:34:00,5590E-2,5C000490,-0724,1371,6771,026.1,045.3,0.130,754.6,01.17,0.508
2014-03-12 02:35:00,5652E-2,5C000490,-0724,1371,6761,026.1,045.2,0.130,754.7,01.17,0.508
2014-03-12 02:36:00,5568E-2,5C000490,-0724,1371,6735,026.1,045.2,0.130,754.7,01.17,0.508
2014-03-12 02:37:00,5585E-2,5C000490,-0724,1371,6806,026.1,045.2,0.130,754.7,01.17,0.508
2014-03-12 02:38:00,5632E-2,5C000490,-0724,1371,6745,026.1,045.3,0.130,754.7,01.17,0.508
2014-03-12 02:39:00,5654E-2,5C000490,-0724,1372,6788,026.1,045.3,0.130,754.7,01.17,0.508
2014-03-12 02:40:00,5631E-2,5C000490,-0724,1372,6717,026.1,045.3,0.130,754.7,01.17,0.508
2014-03-12 02:41:00,5738E-2,5C000490,-0724,1372,6609,026.1,045.3,0.130,754.6,01.17,0.508
2014-03-12 02:42:00,5650E-2,5C000490,-0724,1372,6776,026.1,045.3,0.130,754.6,01.17,0.508
2014-03-12 02:43:00,5660E-2,5C000490,-0724,1372,6832,026.1,045.2,0.130,754.6,01.17,0.508
2014-03-12 02:44:00,5669E-2,5C000490,-0724,1371,6768,026.1,045.2,0.130,754.6,01.17,0.508
2014-03-12 02:45:00,5612E-2,5C000490,-0724,1372,6758,026.1,045.3,0.130,754.6,01.17,0.508
2014-03-12 02:46:00,5724E-2,5C000490,-0724,1372,6752,026.1,045.3,0.130,754.6,01.17,0.508
2014-03-12 02:47:00,5699E-2,5C000490,-0724,1372,6726,026.1,045.2,0.130,754.6,01.17,0.508
2014-03-12 02:48:00,5717E-2,5C000490,-0724,1372,6825,026.1,045.3,0.130,754.6,01.17,0.508
2014-03-12 02:49:00,5644E-2,5C000490,-0724,1372,6715,026.1,045.3,0.130,754.6,01.17,0.508
2014-03-12 02:50:00,5677E-2,5C000490,-0724,1372,6694,026.1,045.2,0.130,754.6,01.17,0.508
2014-03-12 02:51:00,5685E-2,5C000490,-0724,1373,6719,026.1,045.3,0.130,754.6,01.17,0.508
2014-03-12 02:52:00,5652E-2,5C000490,-0724,1373,6660,026.1,045.3,0.130,754.6,01.17,0.508
2014-03-12 02:53:00,5676E-2,5C000490,-0724,1373,6618,026.1,045.2,0.130,754.6,01.17,0.508
2014-03-12 02:54:00,5727E-2,5C000490,-0724,1373,6659,026.1,045.3,0.130,754.6,01.17,0.508
2014-03-12 02:55:00,5693E-2,5C000490,-0724,1373,6625,026.1,045.3,0.130,754.6,01.17,0.508
2014-03-12 02:56:00,5644E-2,5C000490,-0724,1373,6653,026.1,045.3,0.130,754.6,01.17,0.508
2014-03-12 02:57:00,5670E-2,5C000490,-0724,1374,6607,026.0,045.3,0.130,754.6,01.17,0.508
2014-03-12 02:58:00,5673E-2,5C000490,-0724,1374,6591,026.0,045.2,0.130,754.6,01.17,0.508
2014-03-12 02:59:00,5681E-2,5C000490,-0724,1374,6607,026.1,045.3,0.130,754.6,01.17,0.508
2014-03-12 03:00:00,5696E-2,5C000490,-0724,1374,6593,026.1,045.3,0.130,754.6,01.17,0.508
2014-03-12 03:01:00,5661E-2,5C000490,-0724,1374,6668,026.1,045.2,0.130,754.6,01.17,0.508
2014-03-12 03:02:00,5630E-2,5C000490,-0724,1374,6518,026.1,045.2,0.130,754.6,01.17,0.508
2014-03-12 03:03:00,5664E-2,5C000490,-0724,1374,6727,026.1,045.2,0.130,754.6,01.17,0.508
2014-03-12 03:04:00,5680E-2,5C000490,-0724,1374,6653,026.1,045.3,0.130,754.6,01.17,0.508
2014-03-12 03:05:00,5625E-2,5C000490,-0724,1371,6960,026.1,045.3,0.130,754.6,01.17,0.508
2014-03-12 03:06:00,5649E-2,5C000490,-0724,1364,6949,026.0,045.3,0.130,754.6,01.17,0.508
2014-03-12 03:07:00,5733E-2,5C000490,-0724,1363,6979,026.1,045.3,0.130,754.6,01.17,0.508
2014-03-12 03:08:00,5678E-2,5C000490,-0724,1362,6939,026.1,045.3,0.130,754.6,01.17,0.508
2014-03-12 03:09:00,5683E-2,5C000490,-0724,1360,6988,026.0,045.3,0.130,754.5,01.17,0.508
2014-03-12 03:10:00,5665E-2,5C000490,-0724,1361,6831,026.1,045.3,0.130,754.5,01.17,0.508
2014-03-12 03:11:00,5677E-2,5C000490,-0724,1362,6957,026.0,045.2,0.130,754.5,01.17,0.508
2014-03-12 03:12:00,5694E-2,5C000490,-0724,1362,6784,026.0,045.3,0.130,754.5,01.17,0.508
2014-03-12 03:13:00,5645E-2,5C000490,-0724,1364,6942,026.1,045.3,0.130,754.6,01.17,0.508
2014-03-12 03:14:00,5714E-2,5C000490,-0724,1364,6938,026.1,045.2,0.130,754.5,01.17,0.508
2014-03-12 03:15:00,5657E-2,5C000490,-0724,1365,6969,026.1,045.2,0.130,754.5,01.17,0.508
2014-03-12 03:16:00,5628E-2,5C000490,-0724,1366,6877,026.1,045.2,0.130,754.5,01.17,0.508
2014-03-12 03:17:00,5635E-2,5C000490,-0724,1367,6871,026.1,045.3,0.130,754.5,01.17,0.508
2014-03-12 03:18:00,5644E-2,5C000490,-0724,1368,6864,026.1,045.2,0.130,754.5,01.17,0.508
2014-03-12 03:19:00,5668E-2,5C000490,-0724,1363,6855,026.1,045.2,0.130,754.5,01.17,0.508
2014-03-12 03:20:00,5696E-2,5C000490,-0724,1362,6955,026.1,045.2,0.130,754.4,01.17,0.508
2014-03-12 03:21:00,5605E-2,5C000490,-0724,1363,6876,026.1,045.2,0.130,754.5,01.17,0.508
2014-03-12 03:22:00,5625E-2,5C000490,-0724,1363,6818,026.1,045.2,0.130,754.4,01.17,0.508
2014-03-12 03:23:00,5598E-2,5C000490,-0724,1365,6744,026.1,045.3,0.130,754.4,01.17,0.508
2014-03-12 03:24:00,5622E-2,5C000490,-0724,1366,6817,026.1,045.2,0.130,754.5,01.17,0.508
2014-03-12 03:25:00,5618E-2,5C000490,-0724,1367,6852,026.2,045.3,0.130,754.4,01.17,0.508
2014-03-12 03:26:00,5665E-2,5C000490,-0724,1367,6893,026.1,045.3,0.130,754.4,01.17,0.508
2014-03-12 03:27:00,5637E-2,5C000490,-0724,1368,6762,026.2,045.3,0.130,754.4,01.17,0.508
2014-03-12 03:28:00,5628E-2,5C000490,-0724,1369,6830,026.2,045.2,0.130,754.3,01.17,0.508
2014-03-12 03:29:00,5573E-2,5C000490,-0724,1369,6866,026.2,045.3,0.130,754.5,01.17,0.508
2014-03-12 03:30:00,5605E-2,5C000490,-0724,1370,6846,026.2,045.3,0.130,754.5,01.17,0.508
2014-03-12 03:31:00,5585E-2,5C000490,-0724,1370,6704,026.2,045.3,0.130,754.4,01.17,0.508
2014-03-12 03:32:00,5565E-2,5C000490,-0724,1371,6840,026.2,045.2,0.130,754.4,01.17,0.508
2014-03-12 03:33:00,5602E-2,5C000490,-0724,1371,6718,026.2,045.2,0.130,754.4,01.17,0.508
2014-03-12 03:34:00,5643E-2,5C000490,-0724,1371,6703,026.2,045.2,0.130,754.4,01.17,0.508
2014-03-12 03:35:00,5618E-2,5C000490,-0724,1371,6754,026.2,045.2,0.130,754.4,01.17,0.508
2014-03-12 03:36:00,5597E-2,5C000490,-0724,1371,6775,026.2,045.3,0.130,754.4,01.17,0.508
2014-03-12 03:37:00,5646E-2,5C000490,-0724,1371,6756,026.2,045.2,0.130,754.4,01.17,0.508
2014-03-12 03:38:00,5653E-2,5C000490,-0724,1370,6706,026.2,045.3,0.130,754.4,01.17,0.508
2014-03-12 03:39:00,5622E-2,5C000490,-0724,1370,6844,026.2,045.3,0.130,754.4,01.17,0.508
2014-03-12 03:40:00,5588E-2,5C000490,-0724,1370,6794,026.3,045.3,0.130,754.3,01.17,0.508
2014-03-12 03:41:00,5657E-2,5C000490,-0724,1370,6671,026.2,045.2,0.130,754.4,01.17,0.508
2014-03-12 03:42:00,5686E-2,5C000490,-0724,1371,6765,026.2,045.2,0.130,754.4,01.17,0.508
2014-03-12 03:43:00,5588E-2,5C000490,-0724,1371,6736,026.2,045.2,0.130,754.4,01.17,0.508
2014-03-12 03:44:00,5635E-2,5C000490,-0724,1372,6786,026.2,045.2,0.130,754.4,01.17,0.508
2014-03-12 03:45:00,5644E-2,5C000490,-0724,1372,6690,026.2,045.3,0.130,754.4,01.17,0.508
2014-03-12 03:46:00,5591E-2,5C000490,-0724,1372,6763,026.3,045.3,0.130,754.4,01.17,0.508
2014-03-12 03:47:00,5596E-2,5C000490,-0724,1372,6799,026.2,045.2,0.130,754.3,01.17,0.508
2014-03-12 03:48:00,5596E-2,5C000490,-0724,1372,6729,026.3,045.3,0.130,754.4,01.17,0.508
2014-03-12 03:49:00,5651E-2,5C000490,-0724,1372,6730,026.2,045.3,0.130,754.4,01.17,0.508
2014-03-12 03:50:00,5647E-2,5C000490,-0724,1373,6656,026.2,045.3,0.130,754.4,01.17,0.508
2014-03-12 03:51:00,5620E-2,5C000490,-0724,1373,6678,026.2,045.3,0.130,754.3,01.17,0.508
2014-03-12 03:52:00,5578E-2,5C000490,-0724,1373,6721,026.2,045.2,0.130,754.3,01.17,0.508
2014-03-12 03:53:00,5649E-2,5C000490,-0724,1373,6598,026.2,045.2,0.130,754.3,01.17,0.508
2014-03-12 03:54:00,5654E-2,5C000490,-0724,1373,6723,026.2,045.2,0.130,754.3,01.17,0.508
2014-03-12 03:55:00,5581E-2,5C000490,-0724,1373,6675,026.2,045.2,0.130,754.3,01.17,0.508
2014-03-12 03:56:00,5646E-2,5C000490,-0724,1374,6533,026.2,045.3,0.130,754.3,01.17,0.508
2014-03-12 03:57:00,5640E-2,5C000490,-0724,1374,6694,026.2,045.3,0.130,754.3,01.17,0.508
2014-03-12 03:58:00,5625E-2,5C000490,-0724,1374,6505,026.2,045.3,0.130,754.3,01.17,0.508
2014-03-12 03:59:00,5641E-2,5C000490,-0724,1374,6580,026.2,045.2,0.130,754.3,01.17,0.508
2014-03-12 04:00:00,5673E-2,5C000490,-0724,1374,6522,026.2,045.2,0.130,754.3,01.17,0.508
2014-03-12 04:01:00,5730E-2,5C000490,-0724,1374,6535,026.2,045.3,0.130,754.3,01.17,0.508
2014-03-12 04:02:00,5683E-2,5C000490,-0724,1374,6648,026.2,045.3,0.130,754.3,01.17,0.508
2014-03-12 04:03:00,5704E-2,5C000490,-0724,1374,6621,026.2,045.2,0.130,754.3,01.17,0.508
2014-03-12 04:04:00,5645E-2,5C000490,-0724,1374,6623,026.2,045.2,0.130,754.2,01.17,0.508
2014-03-12 04:05:00,5677E-2,5C000490,-0724,1374,6681,026.2,045.3,0.130,754.2,01.17,0.508
2014-03-12 04:06:00,5721E-2,5C000490,-0724,1374,6521,026.2,045.3,0.130,754.2,01.17,0.508
2014-03-12 04:07:00,5651E-2,5C000490,-0724,1374,6615,026.2,045.3,0.130,754.2,01.17,0.508
2014-03-12 04:08:00,5712E-2,5C000490,-0724,1375,6530,026.2,045.3,0.130,754.2,01.17,0.508
2014-03-12 04:09:00,5735E-2,5C000490,-0724,1375,6416,026.2,045.3,0.130,754.1,01.17,0.508
2014-03-12 04:10:00,5718E-2,5C000490,-0724,1375,6542,026.2,045.3,0.130,754.1,01.17,0.508
2014-03-12 04:11:00,5714E-2,5C000490,-0724,1375,6468,026.2,045.2,0.130,754.1,01.17,0.508
2014-03-12 04:12:00,5722E-2,5C000490,-0724,1375,6469,026.2,045.2,0.130,754.1,01.17,0.508
2014-03-12 04:13:00,5683E-2,5C000490,-0724,1375,6505,026.2,045.2,0.130,754.2,01.17,0.508
2014-03-12 04:14:00,5728E-2,5C000490,-0724,1375,6510,026.2,045.3,0.130,754.2,01.17,0.508
2014-03-12 04:15:00,5680E-2,5C000490,-0724,1375,6420,026.2,045.2,0.130,754.2,01.17,0.508
2014-03-12 04:16:00,5722E-2,5C000490,-0724,1375,6450,026.2,045.3,0.130,754.2,01.17,0.508
2014-03-12 04:17:00,5702E-2,5C000490,-0724,1375,6514,026.2,045.3,0.130,754.2,01.17,0.508
2014-03-12 04:18:00,5772E-2,5C000490,-0724,1375,6571,026.2,045.2,0.130,754.2,01.17,0.508
2014-03-12 04:19:00,5762E-2,5C000490,-0724,1375,6479,026.2,045.3,0.130,754.1,01.17,0.508
2014-03-12 04:20:00,5733E-2,5C000490,-0724,1375,6476,026.2,045.2,0.130,754.1,01.17,0.508
2014-03-12 04:21:00,5676E-2,5C000490,-0724,1375,6522,026.2,045.2,0.130,754.1,01.17,0.508
2014-03-12 04:22:00,5721E-2,5C000490,-0724,1375,6508,026.2,045.3,0.130,754.2,01.17,0.508
2014-03-12 04:23:00,5788E-2,5C000490,-0724,1375,6461,026.2,045.2,0.130,754.2,01.17,0.508